Location: Crescent
(42.8242°N, 73.7329°W)
Time: 20:50:12
(UTC+00:00)

Vanguard 2 Rocket - Pass Details

Date: 20 February 2026
Orbit: 553 x 3286 km, 32.9° (Epoch: 9 March)

Event Time Altitude Azimuth Distance (km) Brightness Sun altitude
Rises 15:23:58 0° 220° (SW) 7,038 11.7 31.3°
Reaches altitude 10° 15:29:02 10° 214° (SSW) 6,161 11.6 31.8°
Maximum altitude 15:46:34 40° 153° (SSE) 4,047 13.0 33.2°
Drops below altitude 10° 16:01:01 10° 92° (E) 5,151 11.1 34.2°
Sets 16:04:44 0° 85° (E) 5,834 11.2 34.5°
